Regional Weather Roundup
Issued by NWS Jackson, KY

Home | Current Version | Previous Version | Text Only | Print | Product List | Glossary Off
Versions: 1 2 3 4 5 6 7 8 9 10 11 12 13 14 15 16 17 18 19 20 21 22 23 24 25 26 27 28 29 30 31 32 33 34 35 36 37 38 39 40 41 42 43 44 45 46 47 48 49 50

092
ASUS43 KJKL 221810
RWRJKL

EAST KENTUCKY HOURLY WEATHER ROUNDUP
NATIONAL WEATHER SERVICE JACKSON KY
100 PM EST WED FEB 22 2017

NOTE: "FAIR" INDICATES FEW OR NO CLOUDS BELOW 12,000 FEET WITH
NO SIGNIFICANT WEATHER AND/OR OBSTRUCTIONS TO VISIBILITY.

* THESE REPORTS ARE NOT UNDER NWS QUALITY CONTROL AND MAY NOT
  REPORT WEATHER SUCH AS PRECIPITATION AND FOG.

KYZ079-080-083-085-087-088-110-112-115-119-120-221900
...EASTERN KENTUCKY...

CITY           SKY/WX    TMP DP  RH WIND       PRES   REMARKS
JACKSON        CLOUDY    56  54  93 CALM      29.93F FOG
6HR MIN TEMP:  53; 6HR MAX TEMP:  56; 6HR PCP:  0.08;

LONDON         LGT RAIN  58  54  86 SE5       29.91F
6HR MIN TEMP:  54; 6HR MAX TEMP:  58; 6HR PCP:  0.05;

SOMERSET*      CLOUDY    57  55  94 S3        29.93F
MONTICELLO*    CLOUDY    60  56  86 E7        29.93F
6HR MIN TEMP:  55; 6HR MAX TEMP:  61; 6HR PCP:  0.09;

WILLIAMSBURG*  CLOUDY    57  57 100 SE8       29.92F
MIDDLESBORO*   CLOUDY    57  54  88 CALM      29.95F
6HR MIN TEMP:  52; 6HR MAX TEMP:  57; 6HR PCP:  0.15;

HARLAN APT*    MOCLDY    57  52  82 CALM      29.94F
PIKE CO APT*   LGT RAIN  54  54 100 S3        29.94F
BIG SANDY APT* RAIN      55  55 100 S3        29.93F
6HR MIN TEMP:  53; 6HR MAX TEMP:  55;

MOREHEAD APT*  MOCLDY    57  55  94 S7        29.93F
ASHLAND*       CLOUDY    57  55  94 S5        29.90F
$$

KYZ035-036-041-042-044-050-067-078-099-221900
...CENTRAL KENTUCKY...

CITY           SKY/WX    TMP DP  RH WIND       PRES   REMARKS
MT STERLING*   CLOUDY    59  55  88 SW8       29.92F
FLEMING/MASON* CLOUDY    58  56  91 S7        29.91F
DANVILLE*      CLOUDY    61  55  82 S6        29.92F
LEXINGTON      CLOUDY    64  55  72 SW13      29.90F
6HR MIN TEMP:  56; 6HR MAX TEMP:  64;

FRANKFORT      MOSUNNY   66  55  67 S9        29.88F
6HR MIN TEMP:  56; 6HR MAX TEMP:  67;

LOUISVILLE     PTSUNNY   68  54  60 S6        29.86F
6HR MIN TEMP:  58; 6HR MAX TEMP:  69;

LEBANON*       MOCLDY    64  57  77 S8        29.90F
GLASGOW*       PTSUNNY   66  57  72 SW5       29.89F
BOWLING GREEN  PTSUNNY   67  57  70 S7        29.88F
6HR MIN TEMP:  56; 6HR MAX TEMP:  68;

$$

KYZ091>093-OHZ055-061-077-WVZ005-015-034-035-042-221900
...SOUTHERN OHIO/WEST VIRGINIA...

CITY           SKY/WX    TMP DP  RH WIND       PRES   REMARKS
COVINGTON      CLOUDY    60  57  89 SW9       29.88F
COLUMBUS       CLOUDY    59  56  89 S12       29.88F
DAYTON         CLOUDY    57  56  96 S12       29.87F FOG
WILMINGTON     CLOUDY    57  55  93 S9        29.88F FOG
HUNTINGTON     CLOUDY    56  54  93 S5        29.92F
CHARLESTON     LGT RAIN  54  52  93 SE3       29.93F FOG
PINEVILLE*     CLOUDY    56  51  84 MISG      30.00F
BECKLEY        LGT RAIN  51  50  96 SE6       29.96F FOG
BLUEFIELD      LGT RAIN  53  49  86 SE3       29.98F
LOGAN CO APT*  CLOUDY    52  52 100 S3        29.94F FOG
$$

VAZ002-007-008-TNZ017-027-036-066-071-221900
...SOUTHWEST VIRGINIA/EAST TENNESSEE...

CITY           SKY/WX    TMP DP  RH WIND       PRES   REMARKS
WISE*          CLOUDY    55  55 100 CALM      29.97F
JONESVILLE*    CLOUDY    55  54  94 E7        29.98F
ABINGDON*      LGT RAIN  55  54  95 E6        29.97F
BRISTOL        LGT RAIN  55  53  93 CALM      29.96F FOG
MORRISTOWN*    CLOUDY    57  55  94 NE5       29.93F
SEVIERVILLE*   MOCLDY    57  55  94 NE3       29.92F
KNOXVILLE      CLOUDY    61  56  83 NE5       29.91F
LAFOLLETTE*    CLOUDY    57  54  88 CALM      29.96F
OAK RIDGE      LGT RAIN  59  55  87 CALM      29.94F
CROSSVILLE     CLOUDY    58  54  86 SE7       29.92F
NASHVILLE      CLOUDY    67  57  70 S5        29.89F
$$

...KEY TO REMARKS...
VSB - VISIBILITY IN MILES
WCI - WIND CHILL INDEX
HX  - HEAT INDEX

$$




USA.gov is the U.S. government's official web portal to all federal, state and local government web resources and services.